KLM207 EHAM-KJFK

Flight info

Callsign KLM207
Flight time N/A
Altitude 34000
Route BERGI L602 SUPUR P1 GODOS DCT ROKAN DCT ERLOT DCT ROBEM DCT ORSUM DCT ADODO/M084F360 DCT 6030N02000W 61N030W 60N040W 58N050W DCT DORYY/N0483F360 N788A QUBIS/N0478F380 DCT ENE PARCH4
Aircraft B77W/H-SDE1E2E3FGHIJ2J3J4J5M1RWXY/LB1D1

Departure

Time N/A
Airport Amsterdam Airport Schiphol (EHAM)

Arrival

Time 2026-05-06 14:29
Airport John F. Kennedy International Airport (KJFK)
Time Latitude Longitude Altitude Speed Heading
2026-05-06 13:23 46.10878 -68.80713 35863 ft 426 kts 213°
2026-05-06 13:23 46.08224 -68.82594 35859 ft 426 kts 213°
2026-05-06 13:24 46.02935 -68.86337 35856 ft 425 kts 213°
2026-05-06 13:24 45.97622 -68.90089 35853 ft 423 kts 213°
2026-05-06 13:25 45.92320 -68.93827 35851 ft 425 kts 213°
2026-05-06 13:25 45.87021 -68.97553 35860 ft 424 kts 213°
2026-05-06 13:26 45.81672 -69.01308 35863 ft 425 kts 213°
2026-05-06 13:26 45.76386 -69.05009 35862 ft 426 kts 213°
2026-05-06 13:27 45.71061 -69.08731 35860 ft 426 kts 213°
2026-05-06 13:27 45.65787 -69.12408 35858 ft 427 kts 213°
2026-05-06 13:28 45.60447 -69.16123 35857 ft 426 kts 213°
2026-05-06 13:28 45.55087 -69.19846 35854 ft 428 kts 213°
2026-05-06 13:29 45.49744 -69.23548 35850 ft 429 kts 213°
2026-05-06 13:29 45.44435 -69.27217 35850 ft 427 kts 213°
2026-05-06 13:30 45.39091 -69.30904 35853 ft 427 kts 213°
2026-05-06 13:30 45.33713 -69.34609 35846 ft 428 kts 213°
2026-05-06 13:31 45.28349 -69.38293 35852 ft 426 kts 213°
2026-05-06 13:31 45.22993 -69.41966 35853 ft 430 kts 213°
2026-05-06 13:32 45.17591 -69.45660 35852 ft 427 kts 213°
2026-05-06 13:32 45.12260 -69.49300 35851 ft 427 kts 213°
2026-05-06 13:33 45.06902 -69.52953 35849 ft 431 kts 213°
2026-05-06 13:33 45.01504 -69.56620 35846 ft 427 kts 213°
2026-05-06 13:34 44.96116 -69.60278 35844 ft 433 kts 213°
2026-05-06 13:34 44.90713 -69.63933 35842 ft 428 kts 212°
2026-05-06 13:35 44.85358 -69.67552 35864 ft 432 kts 212°
2026-05-06 13:35 44.79962 -69.71188 35862 ft 429 kts 212°
2026-05-06 13:36 44.74598 -69.74798 35862 ft 429 kts 212°
2026-05-06 13:36 44.69192 -69.78428 35860 ft 429 kts 212°
2026-05-06 13:37 44.63790 -69.82049 35864 ft 434 kts 212°
2026-05-06 13:37 44.58343 -69.85688 35863 ft 429 kts 212°
2026-05-06 13:38 44.52986 -69.89263 35861 ft 430 kts 212°
2026-05-06 13:38 44.47577 -69.92865 35854 ft 429 kts 212°
2026-05-06 13:39 44.42205 -69.96434 35858 ft 429 kts 212°
2026-05-06 13:39 44.36852 -69.99985 35857 ft 429 kts 212°
2026-05-06 13:40 44.31486 -70.03535 35864 ft 428 kts 212°
2026-05-06 13:40 44.26075 -70.07108 35854 ft 427 kts 212°
2026-05-06 13:41 44.20690 -70.10658 35859 ft 429 kts 212°
2026-05-06 13:41 44.15301 -70.14202 35851 ft 426 kts 212°
2026-05-06 13:42 44.09898 -70.17750 35855 ft 432 kts 212°
2026-05-06 13:42 44.04480 -70.21298 35866 ft 428 kts 212°
2026-05-06 13:43 43.99056 -70.24847 35853 ft 433 kts 212°
2026-05-06 13:43 43.93632 -70.28382 35852 ft 428 kts 212°
2026-05-06 13:44 43.88233 -70.31902 35862 ft 436 kts 212°
2026-05-06 13:44 43.82755 -70.35458 35859 ft 430 kts 212°
2026-05-06 13:45 43.77296 -70.38999 35857 ft 433 kts 212°
2026-05-06 13:45 43.69069 -70.44321 35866 ft 436 kts 212°
2026-05-06 13:46 43.63564 -70.47871 35850 ft 433 kts 212°
2026-05-06 13:46 43.58076 -70.51407 35858 ft 437 kts 212°
2026-05-06 13:47 43.52566 -70.54946 35845 ft 435 kts 212°
2026-05-06 13:47 43.47078 -70.58466 35852 ft 438 kts 212°
2026-05-06 13:48 43.41515 -70.62033 35862 ft 437 kts 212°
2026-05-06 13:48 43.36061 -70.65715 35854 ft 437 kts 212°
2026-05-06 13:49 43.30578 -70.69418 35867 ft 437 kts 212°
2026-05-06 13:49 43.25077 -70.73119 35869 ft 440 kts 212°
2026-05-06 13:50 43.19585 -70.76803 35859 ft 436 kts 213°
2026-05-06 13:50 43.14079 -70.80489 35856 ft 439 kts 212°
2026-05-06 13:51 43.08618 -70.84134 35861 ft 435 kts 212°
2026-05-06 13:51 43.03165 -70.87769 35852 ft 438 kts 212°
2026-05-06 13:52 42.97675 -70.91419 35852 ft 437 kts 213°
2026-05-06 13:52 42.92206 -70.95049 35870 ft 440 kts 212°
2026-05-06 13:53 42.86813 -70.98620 35862 ft 437 kts 212°
2026-05-06 13:53 42.81294 -71.02269 35866 ft 439 kts 212°
2026-05-06 13:54 42.75783 -71.05905 35879 ft 441 kts 212°
2026-05-06 13:54 42.70310 -71.09506 35886 ft 436 kts 212°
2026-05-06 13:55 42.64804 -71.13126 35868 ft 441 kts 213°
2026-05-06 13:55 42.59285 -71.16743 35890 ft 436 kts 213°
2026-05-06 13:56 42.53795 -71.20338 35876 ft 439 kts 213°
2026-05-06 13:56 42.48286 -71.23936 35890 ft 436 kts 213°
2026-05-06 13:57 42.42800 -71.27514 35885 ft 441 kts 213°
2026-05-06 13:57 42.37225 -71.31140 35882 ft 439 kts 213°
2026-05-06 13:58 42.31790 -71.34670 36001 ft 440 kts 213°
2026-05-06 13:58 42.29052 -71.36445 35898 ft 437 kts 213°
2026-05-06 13:58 42.26329 -71.38207 35901 ft 436 kts 213°
2026-05-06 13:59 42.20777 -71.41801 35891 ft 439 kts 213°
2026-05-06 13:59 42.15318 -71.45324 35892 ft 438 kts 213°
2026-05-06 14:00 42.09866 -71.48837 35901 ft 438 kts 213°
2026-05-06 14:00 42.04338 -71.52393 35898 ft 438 kts 213°
2026-05-06 14:01 41.98907 -71.55878 35911 ft 438 kts 213°
2026-05-06 14:01 41.93396 -71.59411 35910 ft 440 kts 213°
2026-05-06 14:02 41.88002 -71.62859 35903 ft 440 kts 213°
2026-05-06 14:02 41.82686 -71.66254 35936 ft 445 kts 212°
2026-05-06 14:03 41.77078 -71.69823 35930 ft 438 kts 213°
2026-05-06 14:03 41.71605 -71.73302 35652 ft 435 kts 212°
2026-05-06 14:04 41.68976 -71.74973 35180 ft 441 kts 212°
2026-05-06 14:04 41.66362 -71.76636 34681 ft 447 kts 212°
2026-05-06 14:04 41.63756 -71.78288 34444 ft 447 kts 212°
2026-05-06 14:04 41.60718 -71.80209 34414 ft 443 kts 212°
2026-05-06 14:05 41.57946 -71.81962 34185 ft 446 kts 212°
2026-05-06 14:05 41.55165 -71.83719 33908 ft 444 kts 212°
2026-05-06 14:05 41.52627 -71.85321 33576 ft 447 kts 212°
2026-05-06 14:05 41.49638 -71.87209 33170 ft 451 kts 211°
2026-05-06 14:06 41.46811 -71.88987 32753 ft 445 kts 212°
2026-05-06 14:06 41.43999 -71.90756 32005 ft 444 kts 211°
2026-05-06 14:06 41.41161 -71.92543 30845 ft 452 kts 211°
2026-05-06 14:06 41.38340 -71.94318 29746 ft 457 kts 210°
2026-05-06 14:07 41.35466 -71.96121 29109 ft 452 kts 210°
2026-05-06 14:07 41.32639 -71.97890 28746 ft 442 kts 210°
2026-05-06 14:07 41.29916 -71.99593 28251 ft 436 kts 210°
2026-05-06 14:07 41.27154 -72.01321 27570 ft 433 kts 210°
2026-05-06 14:08 41.24462 -72.03005 26900 ft 430 kts 210°
2026-05-06 14:08 41.21774 -72.04684 26295 ft 426 kts 210°
2026-05-06 14:08 41.19143 -72.06326 25723 ft 422 kts 210°
2026-05-06 14:08 41.16501 -72.07974 25167 ft 416 kts 209°
2026-05-06 14:09 41.13976 -72.09817 24547 ft 409 kts 217°
2026-05-06 14:09 41.11756 -72.12176 23864 ft 403 kts 226°
2026-05-06 14:09 41.09919 -72.14954 23218 ft 398 kts 236°
2026-05-06 14:09 41.08487 -72.18072 22655 ft 393 kts 244°
2026-05-06 14:10 41.07491 -72.21376 22118 ft 388 kts 251°
2026-05-06 14:10 41.06670 -72.24811 21540 ft 385 kts 252°
2026-05-06 14:10 41.05875 -72.28149 21016 ft 381 kts 252°
2026-05-06 14:10 41.05064 -72.31508 20398 ft 378 kts 251°
2026-05-06 14:11 41.04260 -72.34802 19870 ft 374 kts 251°
2026-05-06 14:11 41.03464 -72.38045 19315 ft 370 kts 251°
2026-05-06 14:11 41.02669 -72.41264 18711 ft 368 kts 250°
2026-05-06 14:11 41.01872 -72.44476 18162 ft 364 kts 250°
2026-05-06 14:12 41.01078 -72.47664 17647 ft 360 kts 250°
2026-05-06 14:12 41.00300 -72.50777 17101 ft 356 kts 250°
2026-05-06 14:12 40.99531 -72.53849 16564 ft 352 kts 250°
2026-05-06 14:12 40.98762 -72.56917 16002 ft 349 kts 250°
2026-05-06 14:13 40.98004 -72.59929 15425 ft 347 kts 249°
2026-05-06 14:13 40.97242 -72.62956 14866 ft 344 kts 249°
2026-05-06 14:13 40.96479 -72.65983 14349 ft 339 kts 249°
2026-05-06 14:13 40.95733 -72.68941 13903 ft 336 kts 249°
2026-05-06 14:14 40.94997 -72.71854 13467 ft 333 kts 249°
2026-05-06 14:14 40.94271 -72.74723 13034 ft 334 kts 248°
2026-05-06 14:14 40.93521 -72.77683 12581 ft 331 kts 249°
2026-05-06 14:14 40.92858 -72.80582 12139 ft 331 kts 253°
2026-05-06 14:15 40.92370 -72.83588 11695 ft 332 kts 255°
2026-05-06 14:15 40.91920 -72.86553 11251 ft 328 kts 255°
2026-05-06 14:15 40.91466 -72.89528 10803 ft 326 kts 254°
2026-05-06 14:15 40.91005 -72.92514 10351 ft 328 kts 254°
2026-05-06 14:16 40.90551 -72.95440 9901 ft 325 kts 254°
2026-05-06 14:16 40.90099 -72.98350 9563 ft 314 kts 254°
2026-05-06 14:16 40.89664 -73.01150 9455 ft 302 kts 253°
2026-05-06 14:16 40.89249 -73.03813 9370 ft 285 kts 253°
2026-05-06 14:17 40.88856 -73.06324 9352 ft 269 kts 253°
2026-05-06 14:17 40.88488 -73.08665 9395 ft 259 kts 253°
2026-05-06 14:17 40.88119 -73.10999 9396 ft 254 kts 253°
2026-05-06 14:17 40.87762 -73.13267 9395 ft 249 kts 252°
2026-05-06 14:18 40.87417 -73.15455 9239 ft 241 kts 253°
2026-05-06 14:18 40.87073 -73.17632 8932 ft 240 kts 253°
2026-05-06 14:18 40.86732 -73.19785 8591 ft 240 kts 253°
2026-05-06 14:18 40.86392 -73.21934 8255 ft 240 kts 253°
2026-05-06 14:19 40.86057 -73.24046 7921 ft 240 kts 252°
2026-05-06 14:19 40.85733 -73.26087 7598 ft 240 kts 253°
2026-05-06 14:19 40.85386 -73.28280 7255 ft 240 kts 253°
2026-05-06 14:19 40.85044 -73.30427 6923 ft 239 kts 253°
2026-05-06 14:20 40.84703 -73.32575 6598 ft 238 kts 253°
2026-05-06 14:20 40.84358 -73.34742 6272 ft 238 kts 253°
2026-05-06 14:20 40.84017 -73.36877 5942 ft 237 kts 253°
2026-05-06 14:20 40.83675 -73.39018 5615 ft 237 kts 254°
2026-05-06 14:21 40.83335 -73.41145 5306 ft 236 kts 253°
2026-05-06 14:21 40.82993 -73.43276 5003 ft 234 kts 254°
2026-05-06 14:21 40.82662 -73.45342 4706 ft 233 kts 254°
2026-05-06 14:21 40.82332 -73.47402 4411 ft 232 kts 254°
2026-05-06 14:22 40.81995 -73.49500 4114 ft 230 kts 254°
2026-05-06 14:22 40.81662 -73.51572 3931 ft 223 kts 254°
2026-05-06 14:22 40.81358 -73.53468 3928 ft 210 kts 254°
2026-05-06 14:22 40.81061 -73.55309 3858 ft 201 kts 253°
2026-05-06 14:23 40.80774 -73.57082 3738 ft 194 kts 254°
2026-05-06 14:23 40.80492 -73.58823 3638 ft 191 kts 254°
2026-05-06 14:23 40.80223 -73.60489 3566 ft 182 kts 253°
2026-05-06 14:23 40.79962 -73.62096 3476 ft 176 kts 252°
2026-05-06 14:24 40.79511 -73.63538 3372 ft 169 kts 234°
2026-05-06 14:24 40.78622 -73.64539 3145 ft 168 kts 213°
2026-05-06 14:24 40.77618 -73.65283 2939 ft 166 kts 212°
2026-05-06 14:24 40.76724 -73.65977 2760 ft 155 kts 212°
2026-05-06 14:25 40.75831 -73.66674 2574 ft 149 kts 212°
2026-05-06 14:25 40.74945 -73.67361 2390 ft 138 kts 212°
2026-05-06 14:25 40.74133 -73.67995 2212 ft 134 kts 213°
2026-05-06 14:25 40.73340 -73.68615 2039 ft 131 kts 212°
2026-05-06 14:26 40.72586 -73.69202 1877 ft 123 kts 212°
2026-05-06 14:26 40.71944 -73.69703 1731 ft 120 kts 213°
2026-05-06 14:26 40.71315 -73.70196 1590 ft 118 kts 212°
2026-05-06 14:26 40.70497 -73.70834 1409 ft 118 kts 212°
2026-05-06 14:27 40.69800 -73.71378 1251 ft 118 kts 212°
2026-05-06 14:27 40.69162 -73.71876 1107 ft 119 kts 211°
2026-05-06 14:27 40.67848 -73.72900 809 ft 121 kts 210°
2026-05-06 14:28 40.67114 -73.73474 636 ft 124 kts 210°
2026-05-06 14:28 40.66384 -73.74042 471 ft 125 kts 210°
2026-05-06 14:28 40.65661 -73.74596 336 ft 126 kts 210°
2026-05-06 14:28 40.64904 -73.75201 158 ft 124 kts 208°
2026-05-06 14:29 40.64170 -73.75765 41 ft 113 kts 209°
2026-05-06 14:29 40.63589 -73.76215 28 ft 69 kts 210°
2026-05-06 14:29 40.63307 -73.76437 28 ft 38 kts 210°
2026-05-06 14:29 40.63102 -73.76610 28 ft 30 kts 215°
2026-05-06 14:30 40.62991 -73.76757 28 ft 20 kts 235°
2026-05-06 14:30 40.62929 -73.76908 28 ft 17 kts 257°
2026-05-06 14:30 40.62966 -73.77049 28 ft 16 kts 300°
2026-05-06 14:30 40.63020 -73.77171 28 ft 15 kts 301°
2026-05-06 14:31 40.63074 -73.77289 28 ft 14 kts 301°
2026-05-06 14:31 40.63124 -73.77402 28 ft 13 kts 300°
2026-05-06 14:31 40.63171 -73.77506 28 ft 12 kts 300°
2026-05-06 14:31 40.63216 -73.77606 28 ft 12 kts 301°
2026-05-06 14:32 40.63261 -73.77700 28 ft 11 kts 301°
2026-05-06 14:32 40.63302 -73.77792 28 ft 11 kts 300°
2026-05-06 14:32 40.63341 -73.77880 28 ft 11 kts 300°
2026-05-06 14:32 40.63379 -73.77966 28 ft 10 kts 299°
2026-05-06 14:33 40.63408 -73.78034 28 ft 10 kts 299°
2026-05-06 14:33 40.63460 -73.78153 28 ft 21 kts 300°
2026-05-06 14:33 40.63534 -73.78319 28 ft 20 kts 300°
2026-05-06 14:33 40.63602 -73.78470 28 ft 19 kts 300°
2026-05-06 14:34 40.63668 -73.78616 28 ft 17 kts 301°
2026-05-06 14:34 40.63729 -73.78747 28 ft 16 kts 301°
2026-05-06 14:34 40.63786 -73.78873 28 ft 15 kts 301°
2026-05-06 14:34 40.63840 -73.78993 28 ft 14 kts 300°
2026-05-06 14:35 40.63891 -73.79106 28 ft 14 kts 301°
2026-05-06 14:35 40.63941 -73.79213 28 ft 11 kts 301°
2026-05-06 14:35 40.63966 -73.79252 28 ft 3 kts 350°
2026-05-06 14:35 40.63993 -73.79237 28 ft 7 kts 41°
2026-05-06 14:36 40.64031 -73.79188 28 ft 7 kts 44°
2026-05-06 14:36 40.64075 -73.79173 28 ft 7 kts 331°
2026-05-06 14:36 40.64100 -73.79195 28 ft 3 kts 326°
2026-05-06 14:36 40.64113 -73.79205 28 ft 0 kts 326°